Back to catalog

STARLINK-35711

AliveCommunicationsVLEO
NORAD 66595·PAYLOAD·🇺🇸 United States

Launched Nov 22, 2025 from Cape Canaveral Space Force Station

Loading…

Next Passes (next 24 hours)

TLE

FreshSource: CelesTrak SupGP

Epoch: Sep 14, 2026, 15:05 UTC

1 66595C 25270H   26257.62895833 -.00020125  00000+0 -72861-3 0  2578
2 66595  43.0001  69.0029 0001686 268.6760  80.4629 15.27602540    15

Track STARLINK-35711 in real time with AllMySat

Download on the App Store